Regional Weather Roundup
Issued by NWS

Home | Current Version | Previous Version | Graphics & Text | Print | Product List | Glossary On
Versions: 1 2 3 4 5 6 7 8 9 10 11 12 13 14 15 16 17 18 19 20 21 22 23 24 25 26 27 28 29 30 31 32 33 34 35 36 37 38 39 40 41 42 43 44 45 46 47 48 49 50
000
ASUS45 KCYS 070610
RWRWY

WYOMING REGIONAL WEATHER ROUNDUP
NATIONAL WEATHER SERVICE CHEYENNE WY
1200 AM MDT TUE JUL 07 2015

NOTE:  "FAIR" INDICATES FEW OR NO CLOUDS BELOW 12,000 FEET
WITH NO SIGNIFICANT WEATHER AND/OR OBSTRUCTIONS TO VISIBILITY.

WYZ001-070700-
YELLOWSTONE NATIONAL PARK

CITY           SKY/WX    TMP DP  RH WIND       PRES   REMARKS
LK YELLOWSTONE   N/A     50  47  89 CALM      30.33F
6HR MIN TEMP:  50; 6HR MAX TEMP:  66;

W YELLOWSTONE  NOT AVBL

$$
WYZ002>013-054>058-071-098>099-070700-
NORTHERN WYOMING

CITY           SKY/WX    TMP DP  RH WIND       PRES   REMARKS
JACKSON        FAIR      57  52  82 CALM      30.25S
CODY           FAIR      61  52  72 SW5       30.18S
GREYBULL       FAIR      64  51  62 SE6       30.12F
6HR MIN TEMP:  64; 6HR MAX TEMP:  77;

WORLAND        FAIR      63  54  72 SE9       30.13F
6HR MIN TEMP:  63; 6HR MAX TEMP:  74;

SHERIDAN       FAIR      53  51  93 S5        30.16F
6HR MIN TEMP:  53; 6HR MAX TEMP:  68;

BUFFALO        FAIR      55  52  89 SE7       30.20S
6HR MIN TEMP:  55; 6HR MAX TEMP:  64;

GILLETTE       FAIR      51  48  89 S5        30.20S
6HR MIN TEMP:  49; 6HR MAX TEMP:  68;

HULETT         FAIR      59  52  77 SE6       30.23R
NEWCASTLE      MOCLDY    61  50  67 SE13      30.24S

$$
WYZ014>020-022>026-101>103-070700-
CENTRAL WYOMING

CITY           SKY/WX    TMP DP  RH WIND       PRES   REMARKS
BIG PINEY      CLOUDY    56  53  90 CALM      30.30F
6HR MIN TEMP:  55; 6HR MAX TEMP:  59; 6HR PCP: TRACE;

PINEDALE       CLOUDY    55  54  94 CALM      30.32S
DUBOIS         CLOUDY    52  50  93 W6        30.32F
LANDER         MOCLDY    58  52  80 SW10      30.21F
6HR MIN TEMP:  58; 6HR MAX TEMP:  61; 6HR PCP:  0.07;

RIVERTON       CLOUDY    61  55  81 NW8       30.21F
6HR MIN TEMP:  61; 6HR MAX TEMP:  69;

CASPER         FAIR      56  52  86 E9        30.22F
6HR MIN TEMP:  56; 6HR MAX TEMP:  68;

DOUGLAS        FAIR      54  52  93 SE6       30.24F FOG
6HR MIN TEMP:  54; 6HR MAX TEMP:  64;


$$
WYZ021-027>030-104>119-070700-
SOUTHERN WYOMING

CITY           SKY/WX    TMP DP  RH WIND       PRES   REMARKS
EVANSTON       FAIR      56  49  77 E9        30.26F
6HR MIN TEMP:  56; 6HR MAX TEMP:  72;

KEMMERER       CLOUDY    54  50  87 N6        30.30S
FORT BRIDGER   PTCLDY    57  57 100 NW5       30.30S
ROCK SPRINGS   FAIR      55  52  89 SE6       30.26F
6HR MIN TEMP:  52; 6HR MAX TEMP:  74; 6HR PCP:  0.90;

DIXON          CLOUDY    58  55  89 N10       30.29F
RAWLINS        FAIR      56  52  86 E12       30.27F
6HR MIN TEMP:  56; 6HR MAX TEMP:  70;

SARATOGA       MOCLDY    55  54  94 W3        30.28S
LARAMIE        CLOUDY    53  50  89 SE18G24   30.31F
6HR MIN TEMP:  52; 6HR MAX TEMP:  60;

CHEYENNE       LGT RAIN  54  53  97 SE9       30.32S FOG
6HR MIN TEMP:  54; 6HR MAX TEMP:  57; 6HR PCP:  0.02;

TORRINGTON     CLOUDY    62  57  83 SE6       30.23F HAZE
6HR MIN TEMP:  62; 6HR MAX TEMP:  66;

PINE BLUFFS    CLOUDY    55  54  94 SE7       30.30F FOG

$$



USA.gov is the U.S. government's official web portal to all federal, state and local government web resources and services.